ONEWEB-0218, 48214

Orbit data source: Space-Track

ONEWEB-0218, 48214 is a payload satellite owned by One Web (NAA) (UK) in LEO that was launched on Sun, 25 Apr 2021 UTC via a SOYUZ-2-1B launch vehicle from the Vostochny Cosmodrome (VOSTO). Payload-class satellites include a variety of spacecraft equipped with specific instruments for various scientific and technological missions. These include communications satellites like Starlink; space stations such as the ISS; scientific satellites like the Hubble; Earth observation satellites from companies like Planet Labs, Umbra, and HawkEye 360; GPS; miniature CubeSats for education and research; and military/defense satellites.

Loading next visibility...
Identifier
48214, 2021-031E
Orbit
LEO
Country
Flag of UKUK
Related business
Manufacturer
One Web
Mission
Operational Commercial Communications
Bus & Motor
ARROW, Unknown motor
Mass
148 kg wet, ~140 kg dry
Launch date (UTC)
2021-04-25 (5 years ago)
Launch vehicle
SOYUZ-2-1B
Launch site
Vostochny Cosmodrome (VOSTO)
Object type
Payload
Rocket body
Debris
Shape & HBR
Trap Box + 2 Pan, 6.7 m
Radar Cross Section
3.464 m², Large (>1 m²)

Expand to show TLE details & history
Last TLE update: 7 hours ago

TLE from 7 hours ago
0 ONEWEB-0218
1 48214U 21031E   26094.87597333  .00000156  00000-0  38561-3 0  9990
2 48214  87.8940 304.3268 0002478  73.4867 286.6535 13.14503546238740
Epoch: 2026-04-04T21:01Z
TLE epoch observation values (Epoch: 2026-04-04T21:01:24.095Z)
Latitude
-0.00002°
Longitude
155.78694°
Altitude
1,208.143 km
Speed
7.25 km/s
True Right ascension
20h 17m 18s
True Declination
0° 00' 00"
Sunlit
Object was in daylight at epoch
Visualization orbit readout
Latitude
Unknown
Longitude
Unknown
Altitude
Unknown
Speed
Unknown
Apparent Right ascension
Unknown
Apparent Declination
Unknown
Sunlit
N/A
Visualization observer readout
Local Sidereal Time
09:26:07
Azimuth
Unknown
Elevation
Unknown
Doppler factor
Unknown
Orbital elements
Apogee altitude
1,204.78 km
Perigee altitude
1,201.023 km
Semi-major axis
7,581.038 km
Eccentricity
0.00025
Inclination
87.894°
RAAN
304.3268°
Arg. of periapsis
73.4867°
True anomaly
286.62629°
Mean anomaly
286.6535°
Eccentric anomaly
286.6399°
Mean motion
3.28814 °/min
Orbital period
109.48 mins
BSTAR
0.00038561
Loading maneuver chart data...
Computing Atmospheric mass density...
Loading historical data...
Loading historical data...
Loading historical data...
Loading historical data...
Loading historical data...
Loading historical data...
Loading historical data...

Documentation

Showing up to 5 results
|